Location: New Town
(33.2710°N, 90.7534°W)
Time: 12:55:22
(UTC+00:00)

A-11 Canister half - All Passes

Search period start: 08 May 2021 00:00
Search period end: 18 May 2021 00:00
Orbit: 1526 x 1683 km, 47.3° (Epoch: 07 May)

Date Brightness Start Highest point End Pass type
(mag) Time Alt. Az. Time Alt. Az. Time Alt. Az.
08 May - 01:37:47 10° W 01:43:29 17° WSW 01:49:10 10° SSW visible
08 May - 12:47:54 10° SE 12:49:18 10° ESE 12:50:41 10° ESE daylight
08 May - 14:43:38 10° SSW 14:52:46 55° SE 15:02:12 10° ENE daylight
08 May - 16:48:30 10° WSW 16:57:54 56° NNW 17:07:40 10° NE daylight
08 May - 18:56:06 10° WNW 19:04:56 36° N 19:14:01 10° ENE daylight
08 May - 21:02:36 10° NW 21:12:15 49° NNE 21:22:00 10° E daylight
08 May - 23:07:52 10° NW 23:17:56 72° SW 23:27:59 10° SE daylight
09 May - 01:15:42 10° W 01:21:52 18° WSW 01:28:03 10° SSW visible
09 May - 14:22:06 10° SSW 14:31:08 52° SE 14:40:28 10° ENE daylight
09 May - 16:26:46 10° WSW 16:36:11 58° NNW 16:45:58 10° NE daylight
09 May - 18:34:19 10° WNW 18:43:09 36° N 18:52:12 10° ENE daylight
09 May - 20:40:55 10° NW 20:50:29 48° NNE 21:00:11 10° E daylight
09 May - 22:46:11 10° NW 22:56:15 75° SW 23:06:21 10° SE daylight
10 May - 00:53:40 10° W 01:00:15 20° WSW 01:06:51 10° SSW daylight
10 May - 14:00:36 10° SSW 14:09:30 49° SE 14:18:43 10° ENE daylight
10 May - 16:05:03 10° WSW 16:14:28 60° NNW 16:24:15 10° NE daylight
10 May - 18:12:33 10° WNW 18:21:21 36° N 18:30:24 10° ENE daylight
10 May - 20:19:13 10° NW 20:28:43 46° NNE 20:38:22 10° E daylight
10 May - 22:24:29 10° NW 22:34:34 78° SW 22:44:43 10° SE daylight
11 May - 00:31:42 10° W 00:38:39 21° SW 00:45:36 10° SSW daylight
11 May - 13:39:05 10° SSW 13:47:54 46° SE 13:56:58 10° ENE daylight
11 May - 15:43:20 10° WSW 15:52:45 62° NNW 16:02:33 10° NE daylight
11 May - 17:50:46 10° WNW 17:59:34 36° N 18:08:37 10° ENE daylight
11 May - 19:57:31 10° NW 20:06:57 45° NNE 20:16:33 10° E daylight
11 May - 22:02:47 10° NW 22:12:53 82° SW 22:23:03 10° SE daylight
12 May - 00:09:45 10° WNW 00:17:01 23° SW 00:24:20 10° S daylight
12 May - 13:17:36 10° SSW 13:26:17 44° SE 13:35:12 10° ENE daylight
12 May - 15:21:37 10° WSW 15:31:03 65° NNW 15:40:50 10° NE daylight
12 May - 17:29:00 10° WNW 17:37:47 37° N 17:46:50 10° ENE daylight
12 May - 19:35:50 10° NW 19:45:11 44° NNE 19:54:43 10° E daylight
12 May - 21:41:06 10° NW 21:51:11 85° SW 22:01:22 10° SE daylight
12 May - 23:47:51 10° WNW 23:55:24 25° SW 00:03:01 10° S daylight
13 May - 12:56:08 10° SSW 13:04:40 41° SE 13:13:26 10° ENE daylight
13 May - 14:59:56 10° WSW 15:09:21 67° NNW 15:19:08 10° NE daylight
13 May - 17:07:13 10° WNW 17:16:00 37° N 17:25:02 10° ENE daylight
13 May - 19:14:07 10° NW 19:23:24 43° NNE 19:32:53 10° E daylight
13 May - 21:19:25 10° NW 21:29:29 89° SW 21:39:42 10° SE daylight
13 May - 23:25:57 10° WNW 23:33:47 26° SW 23:41:39 10° S daylight
14 May - 12:34:41 10° SSW 12:43:04 38° SE 12:51:40 10° ENE daylight
14 May - 14:38:14 10° WSW 14:47:39 70° NNW 14:57:26 10° NE daylight
14 May - 16:45:27 10° WNW 16:54:13 37° N 17:03:15 10° ENE daylight
14 May - 18:52:25 10° NW 19:01:38 42° NNE 19:11:03 10° E daylight
14 May - 20:57:44 10° NW 21:07:48 88° NE 21:18:00 10° SE daylight
14 May - 23:04:05 10° WNW 23:12:10 28° SW 23:20:17 10° S daylight
15 May - 12:13:14 10° SSW 12:21:28 36° SE 12:29:52 10° ENE daylight
15 May - 14:16:32 10° WSW 14:25:58 73° NNW 14:35:44 10° NE daylight
15 May - 16:23:40 10° WNW 16:32:26 38° N 16:41:29 10° NE daylight
15 May - 18:30:43 10° NW 18:39:51 41° NNE 18:49:12 10° E daylight
15 May - 20:36:04 10° NW 20:46:06 85° NE 20:56:17 10° SE daylight
15 May - 22:42:16 10° WNW 22:50:32 30° SW 22:58:53 10° S daylight
16 May - 11:51:49 10° S 11:59:52 34° SE 12:08:05 10° ENE daylight
16 May - 13:54:52 10° WSW 14:04:16 76° NW 14:14:02 10° NE daylight
16 May - 16:01:54 10° WNW 16:10:39 38° NNW 16:19:43 10° NE daylight
16 May - 18:09:01 10° NW 18:18:05 40° NNE 18:27:23 10° E daylight
16 May - 20:14:23 10° NW 20:24:24 82° NE 20:34:35 10° SE daylight
16 May - 22:20:26 10° WNW 22:28:54 32° SW 22:37:27 10° S daylight
17 May - 11:30:24 10° S 11:38:16 32° SE 11:46:17 10° ENE daylight
17 May - 13:33:12 10° WSW 13:42:36 79° NW 13:52:21 10° NE daylight
17 May - 15:40:07 10° W 15:48:53 39° NNW 15:57:57 10° NE daylight
17 May - 17:47:19 10° NW 17:56:18 39° NNE 18:05:32 10° E daylight
17 May - 19:52:43 10° NW 20:02:42 79° NE 20:12:51 10° ESE daylight
17 May - 21:58:37 10° WNW 22:07:16 34° SW 22:16:00 10° S daylight
